Location: Newark
(34.3481°N, 134.0494°E)
Time: 14:14:13
(UTC+00:00)

Vanguard 1 Rocket - All Passes

Search period start: 20 January 2020 00:00
Search period end: 30 January 2020 00:00
Orbit: 650 x 4226 km, 34.3° (Epoch: 19 January)

Date Brightness Start Highest point End Pass type
(mag) Time Alt. Az. Time Alt. Az. Time Alt. Az.
20 Jan - 01:45:38 10° WSW 01:55:08 73° SSE 02:14:24 10° ENE daylight
20 Jan - 04:10:40 10° W 04:24:50 90° S 04:50:12 10° E daylight
20 Jan - 06:37:42 10° WNW 06:57:19 72° SSW 07:23:33 10° SE daylight
20 Jan - 09:07:58 10° W 09:29:03 39° SW 09:50:13 10° SSE visible
21 Jan - 00:35:33 10° SW 00:43:17 53° SSE 00:58:19 10° ENE daylight
21 Jan - 02:59:26 10° W 03:10:55 88° S 03:33:33 10° E daylight
21 Jan - 05:25:27 10° W 05:42:15 82° SSW 06:08:46 10° ESE daylight
21 Jan - 07:53:41 10° WNW 08:14:34 53° SW 08:38:40 10° SE daylight
21 Jan - 10:29:09 10° W 10:44:42 20° SW 10:59:29 10° SSW visible
21 Jan - 23:26:16 10° SSW 23:32:21 31° SE 23:42:37 10° E daylight
22 Jan - 01:48:40 10° WSW 01:57:56 80° SSE 02:17:00 10° E daylight
22 Jan - 04:13:47 10° W 04:27:40 88° S 04:52:48 10° ESE daylight
22 Jan - 06:40:41 10° WNW 06:59:42 65° SSW 07:25:35 10° SE daylight
22 Jan - 09:11:34 10° W 09:30:58 32° SW 09:51:01 10° S visible
22 Jan - 22:18:45 10° SSE 22:22:03 14° SE 22:26:14 10° E daylight
23 Jan - 00:38:22 10° SW 00:45:56 62° SSE 01:01:00 10° ENE daylight
23 Jan - 03:02:34 10° W 03:13:51 90° NE 03:36:12 10° E daylight
23 Jan - 05:28:29 10° WNW 05:44:52 76° SSW 06:11:03 10° ESE daylight
23 Jan - 07:56:53 10° W 08:16:40 45° SW 08:40:02 10° SSE daylight
23 Jan - 10:35:50 10° WSW 10:46:41 14° SW 10:57:20 10° SSW visible
23 Jan - 23:28:43 10° SSW 23:34:48 40° SE 23:45:38 10° E daylight
24 Jan - 01:51:44 10° WSW 02:00:51 85° S 02:19:37 10° E daylight
24 Jan - 04:16:53 10° W 04:30:29 85° SSW 04:55:19 10° ESE daylight
24 Jan - 06:43:44 10° WNW 07:02:03 58° SSW 07:27:20 10° SE daylight
24 Jan - 09:15:44 10° W 09:32:58 26° SW 09:51:10 10° S visible
24 Jan - 22:20:07 10° S 22:24:23 20° SE 22:30:23 10° E daylight
25 Jan - 00:41:20 10° WSW 00:48:43 72° SSE 01:03:40 10° ENE daylight
25 Jan - 03:05:43 10° W 03:16:47 90° S 03:38:49 10° E daylight
25 Jan - 05:31:32 10° WNW 05:47:27 69° SSW 06:13:08 10° SE daylight
25 Jan - 08:00:20 10° W 08:18:49 37° SW 08:40:58 10° SSE daylight
25 Jan - 23:31:24 10° SW 23:37:25 49° SSE 23:48:31 10° ENE daylight
26 Jan - 01:54:54 10° W 02:03:50 89° S 02:22:17 10° E daylight
26 Jan - 04:19:58 10° W 04:33:16 80° SSW 04:57:41 10° ESE daylight
26 Jan - 06:46:55 10° W 07:04:24 50° SSW 07:28:45 10° SSE daylight
26 Jan - 09:20:53 10° W 09:35:06 19° SW 09:50:17 10° S visible
26 Jan - 22:22:11 10° SSW 22:26:50 27° SE 22:33:54 10° E daylight
27 Jan - 00:44:24 10° WSW 00:51:39 80° SSE 01:06:22 10° E daylight
27 Jan - 03:08:52 10° W 03:19:43 87° S 03:41:24 10° ESE daylight
27 Jan - 05:34:38 10° WNW 05:50:01 62° SSW 06:14:58 10° SE daylight
27 Jan - 08:04:10 10° W 08:21:02 30° SW 08:41:22 10° S daylight
27 Jan - 21:15:40 10° SE 21:16:36 10° SE 21:17:36 10° ESE visible
27 Jan - 23:34:15 10° SW 23:40:12 60° SSE 23:51:20 10° ENE daylight
28 Jan - 01:58:05 10° W 02:06:50 90° NNW 02:24:58 10° E daylight
28 Jan - 04:23:05 10° W 04:36:02 73° SSW 04:59:52 10° ESE daylight
28 Jan - 06:50:17 10° W 07:06:47 42° SW 07:29:48 10° SSE daylight
28 Jan - 09:28:13 10° WSW 09:37:27 13° SW 09:47:10 10° SSW visible
28 Jan - 22:24:38 10° SSW 22:29:26 35° SE 22:37:06 10° E daylight
29 Jan - 00:47:32 10° WSW 00:54:38 86° S 01:09:05 10° E daylight
29 Jan - 03:12:00 10° W 03:22:37 83° SSW 03:43:53 10° ESE daylight
29 Jan - 05:37:50 10° W 05:52:35 53° SSW 06:16:29 10° SE daylight
29 Jan - 08:08:38 10° W 08:23:23 23° SW 08:41:00 10° S daylight
29 Jan - 21:16:05 10° S 21:19:06 16° SE 21:22:50 10° E visible
29 Jan - 23:37:16 10° WSW 23:43:07 71° SSE 23:54:08 10° E daylight
